AirNav   Phillips 66 Aviation Fuel
 
 349 users online  

NJ69 Ideal Air Strip
Hammonton, New Jersey, USA

GOING TO HAMMONTON?


FAA INFORMATION EFFECTIVE 19 JULY 2018

Location

FAA Identifier: NJ69
Lat/Long: 39-39-30.4200N / 074-48-08.5850W
39-39.507000N / 074-48.143083W
39.6584500 / -74.8023847
(estimated)
Elevation: 80 ft. / 24 m (estimated)
Variation: 12W (1985)
From city: 2 miles N of HAMMONTON, NJ
Time zone: UTC -4 (UTC -5 during Standard Time)
Zip code: 08037

Airport Operations

Airport use: Private use. Permission required prior to landing
Activation date: 11/1971
Control tower: no
ARTCC: WASHINGTON CENTER
FSS: MILLVILLE FLIGHT SERVICE STATION
Attendance: UNATNDD
Wind indicator: no
Segmented circle: no

Airport Communications

WX AWOS-AV at N81 (2.1 nm E): 122.7
WX ASOS at VAY (17 nm N): 119.325 (609-267-1176)

Nearby radio navigation aids

VOR radial/distance  VOR name  Freq  Var
VCNr056/10.5CEDAR LAKE VOR/DME115.2010W
ACYr329/16.0ATLANTIC CITY VORTAC108.6010W
CYNr251/19.6COYLE VORTAC113.4010W
GXUr216/23.1MC GUIRE VORTAC110.6012W
OODr097/23.2WOODSTOWN VORTAC112.8010W
PNEr169/(27.1)NORTH PHILADELPHIA VOR112.0010W
SIEr009/33.8SEA ISLE VORTAC114.8009W
RBVr213/35.6ROBBINSVILLE VORTAC113.8010W
ARDr182/36.0YARDLEY VOR/DME108.2010W
DQOr102/37.2DUPONT VORTAC114.0010W

 
NDB name  Hdg/Dist  Freq  Var  ID
RAINBOW058/21.136311WRNB .-. -. -...
LAKEHURST234/31.639611WNEL -. . .-..
AMBLER154/35.827512WING .. -. --.

Airport Services

Airframe service: NONE
Powerplant service: NONE

Runway Information

Runway NE/SW

Dimensions: 1700 x 150 ft. / 518 x 46 m
Surface: turf
RUNWAY NE  RUNWAY SW
Traffic pattern: leftleft
Obstructions: bldgs wiresnone

Airport Ownership and Management from official FAA records

Ownership: Privately-owned
Owner: 1303 ASSOCIATES, LLC
2760 GLASSBORO-CROSS KEYS RD
GLASSBORO, NJ 08028
Phone 856-863-6904
Manager: CHRIS FAZZIO
2760 GLASSBORO-CROSS KEYS RD
GLASSBORO, NJ 08028
Phone 609-561-2712
609-820-7534

Additional Remarks

PRIVATE FACILITY LICENSED BY STATE FOR 1 PLANE 1 PILOT

Instrument Procedures

There are no published instrument procedures at NJ69.

Some nearby airports with instrument procedures:

N81 - Hammonton Municipal Airport (2 nm E)
19N - Camden County Airport (10 nm NW)
17N - Cross Keys Airport (11 nm W)
29N - Kroelinger Airport (14 nm SW)
N73 - Red Lion Airport (15 nm N)
KACY - Atlantic City International Airport (16 nm SE)
N14 - Flying W Airport (17 nm N)
KVAY - South Jersey Regional Airport (17 nm N)
 
Loc | Ops | Rwys | IFR | FBO | Links
Com | Nav | Svcs | Stats | Notes


 
Area around NJ69 (Ideal Air Strip)
 
Road maps at: MapQuest Bing Google
 
Aerial photo
No photo
 
Sectional chart

 
Airport distance calculator
Flying to Ideal Air Strip? Find the distance to fly.

From to NJ69

Sunrise and sunset
Times for 23-Jul-2018
 Local
(UTC-4)
 Zulu
(UTC)
Morning civil twilight05:2009:20
Sunrise05:5109:51
Sunset20:2000:20
Evening civil twilight20:5100:51

Current date and time
Zulu (UTC)  23-Jul-2018 08:14:16
Local (UTC-4)  23-Jul-2018 04:14:16
 
METAR
KACY 
15nm SE 
230754Z 15012G19KT 9SM OVC007 26/24 A2998 RMK AO2 SLP150 T02560244 $
KVAY 
17nm N 
ASOS 119.325 609-267-1176
230754Z AUTO VRB06KT 9SM OVC008 24/24 A2996 RMK AO2 SLP145 T02440239 $
KMIV 
22nm SW 
230754Z AUTO 14010KT 10SM OVC009 26/24 A2995 RMK AO2 SLP140 T02560239
KPHL 
23nm NW 
230754Z 13009KT 10SM BKN016 OVC033 25/23 A2996 RMK AO2 SLP143 T02500233 $
KWRI 
24nm NE 
230756Z AUTO 13006KT 10SM BKN011 25/23 A2995 RMK AO2 BKN V SCT SLP141 T02450231 TSNO $
KPNE 
27nm N 
230802Z AUTO 12008KT 10SM OVC008 26/23 A2998 RMK AO2 T02610233
KMJX 
29nm NE 
AWOS-3 119.875 732-244-4450
230756Z AUTO 13007G14KT 8SM -RA OVC006 24/24 A2999 RMK AO2 RAB43 SLP160 P0000 T02440239
KNEL 
30nm NE 
230800Z AUTO 7SM OVC008 A2998 RMK AO2 SLPNO PNO
TAF
KACY 
15nm SE 
230526Z 2306/2406 15012G20KT P6SM FEW009 OVC060 TEMPO 2308/2312 BKN009 FM231200 15010KT P6SM VCTS OVC035CB TEMPO 2312/2315 5SM -SHRA OVC035 FM231500 15011KT 6SM -SHRA OVC040 PROB30 2315/2319 5SM TS OVC040CB FM232300 15011KT P6SM OVC040 FM240500 14009KT P6SM BKN025
NOTAMs
Click for the latest NOTAMs
NOTAMs are issued by the DoD/FAA and will open in a separate window not controlled by AirNav.

 

 
 

Would you like to see your business listed on this page?

 If your business provides an interesting product or service to pilots, flight crews, aircraft, or users of the Ideal Air Strip, you should consider listing it here.  To start the listing process, click on the button below
 
Add a business
 

Other Pages about Ideal Air Strip

Update a link
 
Copyright © AirNav, LLC. All rights reserved. Privacy Policy  Contact